This is the latest recevied weather packets stored in our database for station/object IK5UIK-3. If no packets are shown the sender has not sent any weather packets the latest 10 day(s).
| Time | Temp. | Humidity | Pressure | Rain* | Wind** | Luminosity | Snow |
|---|---|---|---|---|---|---|---|
| 1788597366 | 26.11° C | 68% | 1011.4 hPa | 0 mm | - | - | - |
| 1788597006 | 26.11° C | 68% | 1011.2 hPa | 0 mm | - | - | - |
| 1788596948 | 26.11° C | 68% | 1011.2 hPa | 0 mm | - | - | - |
| 1788596646 | 25.56° C | 69% | 1011.4 hPa | 0 mm | - | - | - |
| 1788596348 | 25.56° C | 69% | 1011.4 hPa | 0 mm | - | - | - |
| 1788596319 | 25.56° C | 69% | 1011.4 hPa | 0 mm | - | - | - |
| 1788595926 | 25° C | 69% | 1011.6 hPa | 0 mm | - | - | - |
| 1788595749 | 25° C | 69% | 1011.6 hPa | 0 mm | - | - | - |
| 1788595566 | 25° C | 70% | 1011.5 hPa | 0 mm | - | - | - |
| 1788595449 | 25° C | 70% | 1011.5 hPa | 0 mm | - | - | - |
| 1788595206 | 25° C | 71% | 1011.6 hPa | 0 mm | - | - | - |
| 1788595154 | 25° C | 71% | 1011.6 hPa | 0 mm | - | - | - |
| 1788594846 | 24.44° C | 72% | 1011.6 hPa | 0 mm | - | - | - |
| 1788594486 | 24.44° C | 73% | 1011.7 hPa | 0 mm | - | - | - |
| 1788594252 | 24.44° C | 73% | 1011.7 hPa | 0 mm | - | - | - |
| 1788594126 | 23.89° C | 73% | 1011.6 hPa | 0 mm | - | - | - |
| 1788593766 | 23.89° C | 74% | 1011.4 hPa | 0 mm | - | - | - |
| 1788593651 | 23.89° C | 75% | 1011.5 hPa | 0 mm | - | - | - |
| 1788593406 | 23.33° C | 75% | 1011.4 hPa | 0 mm | - | - | - |
| 1788593046 | 22.78° C | 75% | 1011.2 hPa | 0 mm | - | - | - |
| 1788592750 | 22.78° C | 75% | 1011.3 hPa | 0 mm | - | - | - |
| 1788592686 | 22.78° C | 75% | 1011.2 hPa | 0 mm | - | - | - |
| 1788592326 | 21.67° C | 76% | 1011.1 hPa | 0 mm | - | - | - |
| 1788592150 | 21.11° C | 77% | 1011.1 hPa | 0 mm | - | - | - |
| 1788591966 | 21.11° C | 77% | 1010.8 hPa | 0 mm | - | - | - |
* Rain latest hour (hover to see other rain measurements)
** Current wind speed in m/s (hover to see current wind gust speed)